Weather Roundup
Issued by NWS

Home | Current Version | Previous Version | Text Only | Print | Product List | Glossary On
Versions: 1 2 3 4 5 6 7 8 9 10 11 12 13 14 15 16 17 18 19 20 21 22 23 24 25 26 27 28 29 30 31 32 33 34 35 36 37 38 39 40 41 42 43 44 45 46 47 48 49 50
000
NZUS93 KARX 041310
HRRWXR

CURRENT HOURLY OBSERVATIONS ACROSS
MUCH OF THE UPPER MISSISSIPPI VALLEY
NATIONAL WEATHER SERVICE LA CROSSE WI
800 AM CDT MON MAY 04 2015


...SOUTHEAST MINNESOTA...


CITY           SKY/WX    TMP DP  RH WIND       PRES   REMARKS
ROCHESTER      PTSUNNY   54  42  64 NE13      30.11R
ROCHESTER/MAYO FAIR      54  41  61 N7        30.11R
WINONA         PTSUNNY   55  45  67 NW5       30.09R
AUSTIN         MOSUNNY   54  43  66 NE12      30.09R
ALBERT LEA     MOSUNNY   55  43  62 NE14      30.10R
DODGE CENTER   MOSUNNY   54  41  62 NE8       30.11R
PRESTON        PTSUNNY   53  46  78 N9        30.09R
OWATONNA       SUNNY     55  37  50 NE13      30.11R
FARIBAULT      SUNNY     54  39  58 N9        30.11S
$$

...ELSEWHERE IN MINNESOTA...


CITY           SKY/WX    TMP DP  RH WIND       PRES   REMARKS
MINNEAPOLIS    MOSUNNY   55  36  48 VRB7      30.13R
INTNL FALLS    SUNNY     44  37  76 NW10      30.16R
DULUTH         SUNNY     50  37  61 NW9       30.14R
RED WING       SUNNY     55  37  50 N6        30.11R
REDWOOD FALLS  SUNNY     54  33  45 NE6       30.15R
MANKATO          N/A    N/A N/A N/A MISG        N/A
WORTHINGTON    MOSUNNY   52  28  40 N15       30.13R
FAIRMONT       MOSUNNY   54  34  47 NE9       30.11R
$$

...SOUTHWEST WISCONSIN...


CITY           SKY/WX    TMP DP  RH WIND       PRES   REMARKS
LA CROSSE      PTSUNNY   58  50  75 N9        30.06R
PRAIRIE DU CHI CLOUDY    58  57  96 CALM      30.04R
BOSCOBEL       CLOUDY    61  58  90 CALM      30.04R
LONE ROCK      CLOUDY    61  57  87 N8        30.02R
PLATTEVILLE    CLOUDY    58  57  97 N8        30.05R
FORT MC COY    PTSUNNY   56  49  77 N8        30.07R
CAMP DOUGLAS   PTSUNNY   57  57 100 NW9       30.05R
VIROQUA        CLOUDY    58  58 100 N10       30.05S
WIS DELLS      NOT AVBL
$$

...ELSEWHERE IN WISCONSIN...


CITY           SKY/WX    TMP DP  RH WIND       PRES   REMARKS
MILWAUKEE      CLOUDY    62  55  77 NW8       30.00R
MADISON        CLOUDY    60  57  89 N3        30.01S
GREEN BAY      PTSUNNY   61  55  81 N9        30.01R
EAU CLAIRE     MOSUNNY   55  38  52 N9        30.10R
BLACK RVR FLS  FAIR      55  45  68 N5        30.07R
MEDFORD        MOSUNNY   51  41  69 N7        30.08R
WAUSAU         PTSUNNY   54  43  66 N8        30.05R
WIS RAPIDS     PTSUNNY   53  48  83 N12       30.07R
MARSHFIELD     PTSUNNY   54  44  69 N8        30.07R
RICE LAKE      SUNNY     52  37  55 N8        30.15R
$$

...NORTHEAST IOWA...


CITY           SKY/WX    TMP DP  RH WIND       PRES   REMARKS
DECORAH        PTSUNNY   57  57 100 N8G15     30.05R
MASON CITY     MOSUNNY   56  48  74 N10       30.09R
CHARLES CITY   PTSUNNY   57  54  88 N12       30.07R
OELWEIN        CLOUDY    59  57  94 N8        30.05S
$$

...ELSEWHERE IN IOWA...


CITY           SKY/WX    TMP DP  RH WIND       PRES   REMARKS
DES MOINES     CLOUDY    64  56  75 NE13G20   29.99R
IOWA CITY      CLOUDY    61  59  93 SE10      30.02R
FORT DODGE     PTSUNNY   57  48  72 N12       30.06S
$$

...NORTHERN ILLINOIS...


CITY           SKY/WX    TMP DP  RH WIND       PRES   REMARKS
CHICAGO-OHARE  CLOUDY    62  55  77 W3        30.02R
CHICAGO-MIDWAY CLOUDY    66  57  72 CALM      30.03R
MOLINE         NOT AVBL
ROCKFORD       CLOUDY    61  56  83 NW6       30.05R
PEORIA         CLOUDY    62  59  90 CALM      30.06S FOG
$$

NOTE: "FAIR" INDICATES FEW OR NO CLOUDS BELOW 12,000 FEET WITH NO
SIGNIFICANT WEATHER AND/OR OBSTRUCTIONS TO VISIBILITY. WIND
SPEEDS ARE IN MILES-PER-HOUR.



USA.gov is the U.S. government's official web portal to all federal, state and local government web resources and services.